Time,TemperatureF,DewpointF,PressureIn,WindDirection,WindDirectionDegrees,WindSpeedMPH,WindSpeedGustMPH,Humidity,HourlyPrecipIn,Conditions,Clouds,dailyrainin,SoftwareType,DateUTC
2013-10-01 15:42:00,33.0,27.0,-100.00,NW,325,1.0,2.0,81,0.00,,,0.01,,2013-10-01 23:42:00,
2013-10-01 15:52:00,32.0,26.0,-100.00,NNW,330,1.0,2.0,78,0.00,,,0.01,,2013-10-01 23:52:00,
2013-10-01 16:02:00,32.0,26.0,-100.00,NNW,330,1.0,2.0,78,0.00,,,0.01,,2013-10-02 00:02:00,
2013-10-01 16:12:00,32.0,26.0,-100.00,NNW,330,1.0,2.0,78,0.00,,,0.01,,2013-10-02 00:12:00,
2013-10-01 16:21:00,32.0,26.0,-100.00,North,0,1.0,2.0,79,0.00,,,0.01,,2013-10-02 00:21:00,
2013-10-01 16:32:00,32.0,26.0,-100.00,North,0,1.0,2.0,79,0.00,,,0.01,,2013-10-02 00:32:00,
2013-10-01 16:42:00,32.0,26.0,-100.00,North,0,1.0,2.0,79,0.00,,,0.01,,2013-10-02 00:42:00,
2013-10-01 16:52:00,33.0,27.0,-100.00,NNE,30,0.0,1.0,79,0.00,,,0.01,,2013-10-02 00:52:00,
2013-10-01 17:01:00,33.0,27.0,-100.00,NNE,30,0.0,1.0,79,0.00,,,0.01,,2013-10-02 01:01:00,
2013-10-01 17:12:00,33.0,27.0,-100.00,NNE,30,0.0,1.0,79,0.00,,,0.01,,2013-10-02 01:12:00,
2013-10-01 17:21:00,33.0,27.0,-100.00,SE,145,0.0,1.0,80,0.00,,,0.01,,2013-10-02 01:21:00,
2013-10-01 17:31:00,33.0,27.0,-100.00,SE,145,0.0,1.0,80,0.00,,,0.01,,2013-10-02 01:31:00,
2013-10-01 17:42:00,33.0,27.0,-100.00,SE,145,0.0,1.0,80,0.00,,,0.01,,2013-10-02 01:42:00,
2013-10-01 17:52:00,33.0,28.0,-100.00,NE,40,0.0,2.0,83,0.00,,,0.01,,2013-10-02 01:52:00,
2013-10-01 18:02:00,33.0,28.0,-100.00,NE,40,0.0,2.0,83,0.00,,,0.01,,2013-10-02 02:02:00,
2013-10-01 18:11:00,33.0,28.0,-100.00,NE,40,0.0,2.0,83,0.00,,,0.01,,2013-10-02 02:11:00,
2013-10-01 18:22:00,32.0,27.0,-100.00,NE,35,2.0,4.0,80,0.01,,,0.02,,2013-10-02 02:22:00,
2013-10-01 18:32:00,32.0,27.0,-100.00,NE,35,2.0,4.0,80,0.01,,,0.02,,2013-10-02 02:32:00,
2013-10-01 18:42:00,32.0,27.0,-100.00,NE,35,2.0,4.0,80,0.01,,,0.02,,2013-10-02 02:42:00,
2013-10-01 18:52:00,32.0,27.0,-100.00,ENE,75,0.0,1.0,80,0.01,,,0.02,,2013-10-02 02:52:00,
2013-10-01 19:02:00,32.0,27.0,-100.00,ENE,75,0.0,1.0,80,0.01,,,0.02,,2013-10-02 03:02:00,
2013-10-01 19:12:00,32.0,27.0,-100.00,ENE,75,0.0,1.0,80,0.01,,,0.02,,2013-10-02 03:12:00,
2013-10-01 19:22:00,32.0,27.0,-100.00,SE,140,0.0,1.0,81,0.00,,,0.02,,2013-10-02 03:22:00,
2013-10-01 19:34:00,32.0,27.0,-100.00,SE,140,0.0,1.0,81,0.00,,,0.02,,2013-10-02 03:34:00,
2013-10-01 19:44:00,32.0,27.0,-100.00,SE,140,0.0,1.0,81,0.00,,,0.02,,2013-10-02 03:44:00,
2013-10-01 19:54:00,31.0,27.0,-100.00,SSW,210,1.0,3.0,83,0.00,,,0.02,,2013-10-02 03:54:00,
2013-10-01 20:05:00,31.0,27.0,-100.00,SSW,210,1.0,3.0,83,0.00,,,0.02,,2013-10-02 04:05:00,
2013-10-01 20:13:00,31.0,27.0,-100.00,SSW,210,1.0,3.0,83,0.00,,,0.02,,2013-10-02 04:13:00,
2013-10-01 20:24:00,31.0,27.0,-100.00,SW,225,1.0,2.0,85,0.00,,,0.02,,2013-10-02 04:24:00,
2013-10-01 20:34:00,31.0,27.0,-100.00,SW,225,1.0,2.0,85,0.00,,,0.02,,2013-10-02 04:34:00,
2013-10-01 20:44:00,31.0,27.0,-100.00,SW,225,1.0,2.0,85,0.00,,,0.02,,2013-10-02 04:44:00,
2013-10-01 20:53:00,31.0,28.0,-100.00,NNW,340,1.0,1.0,87,0.00,,,0.02,,2013-10-02 04:53:00,
2013-10-01 21:04:00,31.0,28.0,-100.00,NNW,340,1.0,1.0,87,0.00,,,0.02,,2013-10-02 05:04:00,
2013-10-01 21:13:00,31.0,28.0,-100.00,NNW,340,1.0,1.0,87,0.00,,,0.02,,2013-10-02 05:13:00,
2013-10-01 21:22:00,31.0,28.0,-100.00,NNW,340,2.0,2.0,87,0.00,,,0.02,,2013-10-02 05:22:00,
2013-10-01 21:33:00,31.0,28.0,-100.00,NNW,340,2.0,2.0,87,0.00,,,0.02,,2013-10-02 05:33:00,
2013-10-01 21:42:00,31.0,28.0,-100.00,NNW,340,2.0,2.0,87,0.00,,,0.02,,2013-10-02 05:42:00,
2013-10-01 21:53:00,31.0,28.0,-100.00,North,10,2.0,3.0,88,0.00,,,0.02,,2013-10-02 05:53:00,
2013-10-01 22:03:00,31.0,28.0,-100.00,North,10,2.0,3.0,88,0.00,,,0.02,,2013-10-02 06:03:00,
2013-10-01 22:12:00,31.0,28.0,-100.00,North,10,2.0,3.0,88,0.00,,,0.02,,2013-10-02 06:12:00,
2013-10-01 22:21:00,31.0,28.0,-100.00,NNE,30,2.0,3.0,88,0.00,,,0.02,,2013-10-02 06:21:00,
2013-10-01 22:32:00,31.0,28.0,-100.00,NNE,30,2.0,3.0,88,0.00,,,0.02,,2013-10-02 06:32:00,
2013-10-01 22:42:00,31.0,28.0,-100.00,NNE,30,2.0,3.0,88,0.00,,,0.02,,2013-10-02 06:42:00,
2013-10-01 22:52:00,31.0,27.0,-100.00,North,355,1.0,2.0,86,0.00,,,0.02,,2013-10-02 06:52:00,
2013-10-01 23:01:00,31.0,27.0,-100.00,North,355,1.0,2.0,86,0.00,,,0.02,,2013-10-02 07:01:00,
2013-10-01 23:11:00,31.0,27.0,-100.00,North,355,1.0,2.0,86,0.00,,,0.02,,2013-10-02 07:11:00,
2013-10-01 23:21:00,31.0,27.0,-100.00,NNW,345,1.0,2.0,87,0.00,,,0.02,,2013-10-02 07:21:00,
2013-10-01 23:32:00,31.0,27.0,-100.00,NNW,345,1.0,2.0,87,0.00,,,0.02,,2013-10-02 07:32:00,
2013-10-01 23:42:00,31.0,27.0,-100.00,NNW,345,1.0,2.0,87,0.00,,,0.02,,2013-10-02 07:42:00,
2013-10-01 23:52:00,31.0,28.0,-100.00,NE,55,2.0,3.0,88,0.00,,,0.02,,2013-10-02 07:52:00,